TimeCDT,TemperatureF,Dew PointF,Humidity,Sea Level PressureIn,VisibilityMPH,Wind Direction,Wind SpeedMPH,Gust SpeedMPH,PrecipitationIn,Events,Conditions,WindDirDegrees,DateUTC
12:15 AM,37.8,36.9,97,29.88,3.0,ESE,9.2,-,N/A,,Clear,120,2012-11-02 05:15:00
12:35 AM,37.8,36.9,97,29.88,3.0,ESE,10.4,-,N/A,,Scattered Clouds,120,2012-11-02 05:35:00
12:55 AM,38.3,37.4,97,29.88,2.5,ESE,11.5,-,N/A,,Overcast,120,2012-11-02 05:55:00
1:15 AM,38.8,37.9,97,29.87,2.0,SE,12.7,-,N/A,,Overcast,130,2012-11-02 06:15:00
1:35 AM,39.2,38.3,97,29.87,2.5,SE,13.8,17.3,N/A,,Overcast,130,2012-11-02 06:35:00
1:55 AM,39.2,38.3,97,29.87,2.5,SE,12.7,-,N/A,,Overcast,130,2012-11-02 06:55:00
2:15 AM,39.0,38.3,97,29.87,2.0,SE,12.7,-,N/A,,Overcast,130,2012-11-02 07:15:00
2:35 AM,38.8,38.3,98,29.86,1.0,SE,11.5,-,N/A,,Overcast,140,2012-11-02 07:35:00
2:55 AM,38.8,38.3,98,29.86,1.0,SE,12.7,-,N/A,,Overcast,140,2012-11-02 07:55:00
3:15 AM,39.0,38.3,97,29.86,1.8,SE,12.7,-,N/A,,Overcast,140,2012-11-02 08:15:00
3:35 AM,39.2,38.5,97,29.87,2.0,SE,13.8,18.4,N/A,,Overcast,140,2012-11-02 08:35:00
3:55 AM,39.2,38.3,97,29.85,2.0,SE,13.8,-,N/A,,Overcast,140,2012-11-02 08:55:00
4:15 AM,39.2,38.3,97,29.84,1.8,SSE,13.8,-,N/A,,Overcast,150,2012-11-02 09:15:00
4:35 AM,38.8,38.3,98,29.84,1.8,SSE,13.8,-,N/A,,Overcast,150,2012-11-02 09:35:00
4:55 AM,39.2,38.3,97,29.83,1.8,SSE,12.7,-,N/A,,Overcast,150,2012-11-02 09:55:00
5:15 AM,39.2,38.3,97,29.83,1.8,SSE,13.8,19.6,N/A,,Overcast,160,2012-11-02 10:15:00
5:35 AM,39.2,38.5,97,29.84,1.8,SSE,11.5,-,N/A,,Overcast,150,2012-11-02 10:35:00
5:55 AM,39.2,38.5,97,29.85,1.8,SSE,11.5,-,N/A,,Overcast,160,2012-11-02 10:55:00
6:15 AM,39.4,38.7,97,29.85,2.0,SSE,9.2,-,N/A,,Overcast,160,2012-11-02 11:15:00
6:35 AM,39.7,39.2,98,29.87,2.0,South,9.2,-,N/A,,Overcast,170,2012-11-02 11:35:00
6:55 AM,39.7,39.2,98,29.86,2.0,South,8.1,-,N/A,,Overcast,180,2012-11-02 11:55:00
7:15 AM,40.1,39.2,97,29.86,2.5,South,10.4,-,N/A,,Overcast,170,2012-11-02 12:15:00
7:35 AM,40.1,39.2,97,29.87,2.5,South,9.2,-,N/A,,Overcast,180,2012-11-02 12:35:00
7:55 AM,39.7,38.8,97,29.89,2.5,SW,5.8,-,N/A,,Overcast,220,2012-11-02 12:55:00
8:15 AM,39.7,38.8,97,29.90,2.5,WSW,9.2,-,N/A,,Overcast,240,2012-11-02 13:15:00
8:35 AM,39.7,38.7,96,29.91,2.0,West,12.7,-,N/A,,Overcast,270,2012-11-02 13:35:00
8:55 AM,40.3,39.2,96,29.92,3.0,WNW,13.8,19.6,N/A,,Overcast,300,2012-11-02 13:55:00
9:15 AM,40.3,39.2,96,29.94,1.8,WNW,11.5,19.6,N/A,,Overcast,300,2012-11-02 14:15:00
9:35 AM,40.5,39.4,96,29.94,2.0,NW,17.3,21.9,N/A,,Overcast,310,2012-11-02 14:35:00
9:55 AM,40.1,38.7,95,29.95,2.5,NW,17.3,25.3,N/A,,Overcast,310,2012-11-02 14:55:00
10:15 AM,39.2,37.9,95,29.96,2.5,NW,16.1,-,N/A,,Overcast,310,2012-11-02 15:15:00
10:35 AM,38.8,37.4,95,29.96,3.0,NW,17.3,20.7,N/A,,Overcast,310,2012-11-02 15:35:00
10:55 AM,37.8,36.5,95,29.97,2.5,NW,19.6,-,N/A,,Overcast,320,2012-11-02 15:55:00
11:15 AM,37.0,35.6,95,29.98,3.0,NW,15.0,19.6,N/A,,Overcast,320,2012-11-02 16:15:00
11:35 AM,36.1,34.7,94,29.99,2.5,NW,16.1,-,N/A,,Overcast,310,2012-11-02 16:35:00
11:55 AM,36.5,35.1,95,29.99,5.0,NW,13.8,-,N/A,,Overcast,320,2012-11-02 16:55:00
12:15 PM,37.2,34.2,89,30.01,10.0,NW,16.1,-,N/A,,Overcast,310,2012-11-02 17:15:00
12:35 PM,38.1,33.3,83,30.02,10.0,NW,16.1,19.6,N/A,,Overcast,310,2012-11-02 17:35:00
12:55 PM,38.1,32.9,81,30.02,10.0,NW,18.4,-,N/A,,Overcast,310,2012-11-02 17:55:00
1:15 PM,38.5,32.4,79,30.02,10.0,NW,16.1,21.9,N/A,,Overcast,320,2012-11-02 18:15:00
1:35 PM,39.2,32.4,76,30.02,10.0,NW,16.1,-,N/A,,Overcast,320,2012-11-02 18:35:00
1:55 PM,40.3,32.5,74,30.02,10.0,NW,18.4,-,N/A,,Overcast,320,2012-11-02 18:55:00
2:15 PM,40.5,32.2,72,30.02,10.0,NW,16.1,20.7,N/A,,Overcast,320,2012-11-02 19:15:00
2:35 PM,40.1,32.0,73,30.01,10.0,NNW,15.0,-,N/A,,Overcast,340,2012-11-02 19:35:00
2:55 PM,40.5,32.0,72,30.02,10.0,NW,12.7,-,N/A,,Overcast,320,2012-11-02 19:55:00
3:15 PM,41.7,32.4,69,30.01,10.0,NW,12.7,-,N/A,,Overcast,320,2012-11-02 20:15:00
3:35 PM,43.2,33.1,68,30.02,10.0,NW,16.1,-,N/A,,Overcast,310,2012-11-02 20:35:00
3:55 PM,42.1,32.4,68,30.02,10.0,NW,15.0,-,N/A,,Scattered Clouds,320,2012-11-02 20:55:00
4:15 PM,42.4,33.4,70,30.02,10.0,NW,13.8,18.4,N/A,,Mostly Cloudy,310,2012-11-02 21:15:00
4:35 PM,43.0,33.3,69,30.03,10.0,NNW,17.3,20.7,N/A,,Scattered Clouds,330,2012-11-02 21:35:00
4:55 PM,42.8,32.9,68,30.03,10.0,NNW,10.4,-,N/A,,Clear,330,2012-11-02 21:55:00
5:15 PM,42.4,32.5,68,30.03,10.0,NW,10.4,-,N/A,,Clear,320,2012-11-02 22:15:00
5:35 PM,42.1,32.2,68,30.04,10.0,NW,9.2,-,N/A,,Clear,320,2012-11-02 22:35:00
5:55 PM,41.4,32.2,70,30.04,10.0,NW,6.9,-,N/A,,Clear,320,2012-11-02 22:55:00
6:15 PM,40.3,32.2,73,30.05,10.0,NNW,5.8,-,N/A,,Clear,330,2012-11-02 23:15:00
6:35 PM,38.7,32.0,77,30.06,5.0,NNW,4.6,-,N/A,,Haze,330,2012-11-02 23:35:00
6:55 PM,36.7,31.3,81,30.07,7.0,North,4.6,-,N/A,,Clear,360,2012-11-02 23:55:00
7:15 PM,33.8,29.3,84,30.08,10.0,North,5.8,-,N/A,,Clear,350,2012-11-03 00:15:00
7:35 PM,32.9,29.7,88,30.08,10.0,North,4.6,-,N/A,,Clear,360,2012-11-03 00:35:00
7:55 PM,32.7,30.0,90,30.08,10.0,NNE,4.6,-,N/A,,Clear,20,2012-11-03 00:55:00
8:15 PM,34.2,30.4,86,30.09,10.0,Calm,Calm,-,N/A,,Clear,0,2012-11-03 01:15:00
8:35 PM,32.2,29.3,89,30.09,10.0,Calm,Calm,-,N/A,,Clear,0,2012-11-03 01:35:00
8:55 PM,31.3,28.9,91,30.09,10.0,Calm,Calm,-,N/A,,Clear,0,2012-11-03 01:55:00
9:15 PM,29.7,28.0,94,30.09,7.0,Calm,Calm,-,N/A,,Clear,0,2012-11-03 02:15:00
9:35 PM,30.0,28.2,93,30.10,7.0,Calm,Calm,-,N/A,,Clear,0,2012-11-03 02:35:00
9:55 PM,29.5,28.4,96,30.10,7.0,SSW,4.6,-,N/A,,Clear,200,2012-11-03 02:55:00
10:15 PM,29.5,28.6,96,30.10,7.0,Calm,Calm,-,N/A,,Clear,0,2012-11-03 03:15:00
10:35 PM,28.9,27.5,94,30.11,7.0,SW,3.5,-,N/A,,Clear,220,2012-11-03 03:35:00
10:55 PM,29.7,28.4,95,30.10,7.0,SW,5.8,-,N/A,,Clear,220,2012-11-03 03:55:00
11:15 PM,29.7,28.4,95,30.10,7.0,SW,5.8,-,N/A,,Clear,220,2012-11-03 04:15:00
11:35 PM,30.2,28.9,95,30.10,7.0,WSW,5.8,-,N/A,,Clear,240,2012-11-03 04:35:00
11:55 PM,28.9,27.5,94,30.11,7.0,SW,3.5,-,N/A,,Clear,220,2012-11-03 04:55:00